Probability
0 0 0 1 1 1 1 1 1 1 1 1 0 1 1 1 1 1 2 3 4 8 12 12 12 14 15 15 15 14 13 12 11 11 11 11 12 13 12 11 9 9 10 10
0 0 1 1 2 2 2 3 3 2 1 0 0 0 0 1 1 1 1 1 2 6 10 11 12 14 15 15 15 15 14 12 10 10 11 12 12 12 11 11 9 8 9 9
0 0 1 2 2 2 3 4 4 2 1 0 0 0 0 1 2 1 0 0 2 5 7 9 10 12 14 15 15 15 14 12 10 10 11 12 11 11 11 11 10 8 8 8
0 0 0 1 1 1 2 3 2 1 0 0 0 0 0 1 2 2 1 2 3 5 6 7 8 9 11 14 15 14 13 11 10 11 11 11 10 10 11 11 10 10 9 8
0 1 1 0 0 0 1 1 1 0 0 0 0 0 0 1 1 2 3 4 4 4 5 6 6 7 9 10 11 10 9 9 10 12 12 10 10 11 12 10 10 10 10 9
1 1 1 0 0 0 0 0 0 0 0 0 0 0 0 1 1 2 3 4 4 3 4 5 6 7 7 7 6 6 7 8 10 11 11 10 11 12 12 11 10 10 10 10
1 1 1 0 0 0 0 0 0 0 1 0 0 0 0 0 1 2 3 4 4 4 4 5 5 6 7 6 4 4 5 6 8 10 10 10 10 12 12 11 10 10 10 10
1 0 0 0 0 0 0 0 0 0 0 0 0 0 0 0 1 2 4 4 4 5 5 5 6 7 7 6 5 4 4 5 6 8 9 9 9 10 11 11 10 10 10 10
0 0 0 0 0 0 0 0 0 0 0 0 0 0 0 0 1 3 4 5 5 6 6 6 7 7 6 5 4 3 4 4 4 6 8 8 8 8 9 9 9 9 10 10
0 0 0 0 0 0 0 0 0 0 1 1 1 0 0 1 3 4 5 5 5 5 6 6 6 6 6 5 3 3 3 4 4 4 6 8 7 7 7 7 8 8 9 9
0 0 0 0 0 0 0 0 0 1 2 2 2 1 1 2 4 5 5 5 4 4 5 5 5 5 6 5 4 3 3 3 3 3 4 6 6 6 6 6 6 6 6 6
0 0 0 0 0 0 0 0 0 1 2 2 2 2 2 3 4 4 3 3 3 3 4 4 4 4 4 5 4 3 3 3 2 3 3 4 5 5 4 3 3 2 2 2
0 0 0 0 0 0 0 0 0 0 1 1 1 3 3 3 3 2 1 1 1 1 3 3 3 3 3 3 3 2 2 1 1 1 2 3 3 4 3 2 1 1 0 0
0 0 0 0 0 0 0 0 0 0 0 0 1 2 3 3 1 1 0 0 0 1 2 3 3 3 2 2 1 1 1 0 0 0 1 1 1 2 2 2 1 0 0 0
0 0 0 0 0 0 0 0 0 0 0 0 1 2 3 3 1 0 0 0 1 1 1 1 2 2 1 0 0 0 0 0 0 0 0 0 0 1 1 1 1 0 0 0
0 0 0 0 0 0 0 0 0 0 0 0 0 1 3 4 2 1 1 1 1 2 1 1 1 1 0 0 0 0 0 0 0 0 0 1 1 0 0 0 1 0 0 0
0 0 0 0 0 0 0 0 1 1 0 0 0 0 2 4 3 2 2 1 1 2 2 2 1 0 0 0 0 0 0 0 0 0 0 1 1 1 1 0 0 0 0 0
0 0 0 0 0 0 0 0 1 1 1 0 0 0 1 2 3 2 2 2 2 2 2 2 2 1 1 0 0 0 0 0 0 0 0 1 1 1 1 0 0 0 0 0
0 0 0 0 0 0 0 0 0 1 1 1 0 0 0 1 1 1 1 1 1 1 1 1 1 1 1 0 0 0 0 0 0 0 0 0 0 1 1 0 0 0 0 0
0 0 0 0 0 0 0 0 0 0 1 1 1 0 0 0 0 0 0 0 0 1 0 0 0 1 1 0 0 1 0 0 0 0 0 0 0 0 0 0 0 0 0 0
0 0 0 0 0 0 0 0 0 0 0 1 1 0 0 0 0 0 0 0 0 0 0 0 0 0 0 0 0 0 0 0 0 0 0 0 0 0 0 0 0 0 0 0
0 0 0 0 0 0 0 0 0 0 0 0 0 0 0 0 0 0 0 0 0 0 0 0 0 0 0 0 0 0 0 0 0 0 0 0 0 0 0 0 0 0 0 0
0 0 0 0 0 0 0 0 0 0 0 0 0 0 0 0 0 0 0 0 0 0 0 0 0 0 0 0 0 0 0 0 0 0 0 0 0 0 0 0 0 0 0 0
0 0 0 0 0 0 0 0 0 0 0 0 0 0 0 0 0 0 0 0 0 0 0 0 0 0 0 0 0 0 0 0 0 0 0 0 0 0 0 0 0 0 0 0
0 0 0 0 0 0 0 0 0 0 0 0 0 0 0 0 0 0 0 0 0 0 0 0 0 0 0 0 0 0 0 0 0 0 0 0 0 0 0 0 0 0 0 0
0 0 0 0 0 0 0 0 0 0 0 0 0 0 0 0 0 0 0 0 0 0 0 0 0 0 0 0 0 0 0 0 0 0 0 0 0 0 0 0 0 0 0 0
0 0 0 0 0 0 0 0 0 0 0 0 0 0 0 0 0 0 0 0 0 0 0 0 0 0 0 0 0 0 0 0 0 0 0 0 0 0 0 0 0 0 0 0
Wind_Speed
7 5 6 7 8 8 10 9 8 4 3 2 2 1 2 4 4 5 4 4 5 4 4 4 4 4 3 3 2 3 3 3 3 3 3 3 3 2 2 2 2 2 2 2
8 7 6 7 7 8 9 8 8 6 3 2 1 1 2 4 4 4 3 3 4 4 4 3 3 3 3 3 3 3 4 3 3 3 3 3 3 3 3 2 2 2 3 3
8 7 8 8 6 7 7 5 6 6 2 1 1 1 2 4 4 3 3 3 3 3 3 2 2 2 3 3 3 3 4 3 3 4 4 4 4 3 3 3 3 3 3 3
6 7 9 1 0 4 5 4 3 2 1 1 1 0 2 3 3 2 2 3 3 2 2 2 2 3 3 3 3 3 4 3 3 3 4 4 4 3 3 3 3 3 3 3
6 8 5 4 2 4 5 5 3 3 2 1 1 2 3 3 2 2 2 2 3 3 3 3 2 2 3 3 3 3 3 3 3 3 3 4 4 3 3 3 3 3 3 3
7 8 7 2 2 2 5 5 2 2 2 1 3 3 2 3 2 2 2 2 3 3 3 3 3 3 3 3 3 3 3 3 3 3 3 4 3 3 3 3 3 3 2 3
8 7 3 3 0 4 6 1 2 0 1 1 2 3 3 3 3 3 3 3 3 3 3 3 2 3 3 3 2 3 3 3 3 3 3 4 3 3 3 3 3 3 3 3
7 7 2 4 1 1 4 4 1 1 0 1 1 1 1 3 3 3 3 3 3 2 2 3 3 3 3 2 2 2 3 3 3 3 3 3 3 3 3 4 4 4 4 4
2 2 6 3 3 4 3 2 2 1 1 1 1 1 1 2 3 3 3 3 3 2 2 2 2 3 3 2 2 2 3 3 3 3 3 3 3 4 4 4 4 4 4 4
1 2 2 2 3 3 3 3 3 2 2 2 2 2 2 2 2 3 3 3 3 3 2 1 2 2 2 2 3 3 2 2 3 3 4 3 3 3 3 3 4 4 4 4
2 1 1 2 4 4 3 3 3 2 2 2 1 1 2 2 2 2 2 2 2 2 2 2 1 1 1 1 2 3 3 3 3 4 3 3 4 3 4 2 2 4 4 4
1 1 3 2 3 4 3 2 3 2 1 1 1 1 1 2 2 2 2 2 2 2 2 2 1 1 1 2 2 3 3 3 3 3 3 3 3 3 1 2 1 2 4 5
3 3 3 3 3 3 3 3 3 3 2 2 1 1 1 1 2 2 2 2 2 2 2 2 2 2 2 2 2 3 3 3 3 3 3 3 3 3 3 3 4 4 4 4
2 2 2 2 3 3 3 4 3 2 1 1 0 0 1 1 1 2 2 2 2 2 2 2 2 2 1 2 2 3 4 2 3 3 3 3 3 4 4 3 3 3 5 6
3 3 3 4 4 3 3 3 2 1 1 1 0 0 1 1 2 2 1 1 2 2 2 2 2 2 2 2 2 3 3 2 3 3 3 3 4 4 3 3 3 3 2 4
4 3 3 3 3 3 3 3 3 2 1 1 0 1 1 1 1 1 1 2 2 2 2 2 2 2 2 2 3 3 3 2 3 4 4 3 3 3 3 3 3 3 3 2
4 4 4 4 4 5 5 4 4 3 2 2 1 1 1 1 1 2 2 2 2 2 2 2 3 3 3 3 4 4 3 2 4 5 4 3 3 3 3 3 3 3 2 1
5 5 5 5 5 5 5 5 5 4 3 2 1 1 2 1 2 2 2 2 2 2 2 3 2 3 3 3 4 4 3 3 3 4 3 3 3 3 3 4 4 4 3 1
4 5 5 5 5 5 5 4 4 4 3 2 3 3 2 2 2 2 2 2 3 3 3 2 2 4 3 2 4 4 4 3 3 3 3 3 4 4 4 4 4 4 4 3
4 4 4 4 4 4 4 3 3 3 3 3 3 3 3 2 2 2 2 3 2 2 2 2 3 4 4 2 4 5 4 4 3 3 3 3 4 4 4 4 4 4 4 4
4 4 4 3 3 3 3 3 3 3 3 3 2 2 2 2 3 3 3 3 1 2 3 2 4 4 3 2 5 6 4 4 3 3 3 4 4 4 4 4 4 4 4 4
4 4 4 4 3 3 3 2 2 3 3 3 3 2 2 3 3 3 3 3 2 1 3 3 3 1 3 4 6 5 4 4 3 3 3 3 3 4 4 4 4 4 4 4
4 4 4 4 4 3 3 2 2 2 2 3 3 3 3 4 3 3 3 2 2 2 3 2 2 2 4 6 5 4 3 3 4 3 3 3 3 3 4 4 4 4 4 4
4 4 4 4 3 3 3 3 3 2 2 3 3 3 4 3 3 3 3 1 1 2 3 1 1 3 7 5 4 3 3 3 3 3 3 3 3 3 3 4 4 4 4 5
3 3 3 3 3 3 3 3 3 3 2 2 3 3 3 3 3 3 3 2 1 3 3 2 4 6 6 4 3 3 3 3 3 4 3 3 3 3 3 4 4 4 4 4
3 3 3 3 3 3 3 3 2 2 3 3 2 2 3 2 3 3 3 3 3 3 4 3 2 4 4 3 2 2 2 2 3 3 3 3 4 4 3 4 5 4 4 4
3 3 2 2 2 3 3 3 3 3 3 3 3 3 3 3 3 3 3 3 3 3 3 3 3 3 3 2 2 2 2 3 3 3 3 3 3 3 3 4 4 4 4 3
Wind_Direction
258 257 244 240 236 227 236 257 270 271 262 312 346 26 138 151 152 153 158 164 170 174 177 184 188 195 208 217 218 218 212 203 195 192 193 196 193 191 195 206 212 214 225 233
234 232 238 238 238 230 234 247 254 260 270 17 39 102 144 161 165 164 167 177 181 184 183 192 195 198 202 211 211 210 209 206 200 199 200 200 200 198 199 208 225 227 234 241
232 218 233 227 234 233 226 235 250 257 281 127 198 161 173 179 174 168 176 183 186 187 188 195 200 202 203 205 206 203 202 203 205 210 210 210 210 200 205 219 228 232 242 246
237 220 236 171 129 239 226 220 235 265 288 253 287 276 177 177 179 177 178 177 177 185 183 185 189 192 195 197 193 191 199 199 207 217 218 214 210 208 217 227 235 240 245 248
244 236 224 179 198 237 235 219 211 231 237 200 155 181 156 141 171 179 169 163 166 171 168 164 174 179 185 192 190 192 202 206 205 212 225 224 219 218 224 229 232 234 231 237
241 246 241 151 101 274 245 215 141 215 218 214 219 243 109 128 163 156 138 146 150 157 155 156 167 181 193 198 202 210 214 215 208 215 229 235 229 225 225 231 235 244 234 234
242 242 222 38 26 213 230 52 61 217 190 220 251 351 42 135 151 149 146 145 144 154 159 162 178 192 208 214 220 226 222 216 214 218 229 231 235 229 227 231 233 244 241 233
235 239 187 58 148 254 14 29 27 21 61 241 292 46 87 135 145 149 154 156 159 159 163 175 188 199 211 218 233 241 232 219 213 217 233 222 229 238 233 235 229 229 234 239
298 41 65 65 47 31 9 1 357 342 332 277 234 223 148 147 153 160 164 165 170 169 162 171 187 204 212 209 221 233 237 229 218 212 229 231 231 231 226 225 243 247 246 248
186 111 71 53 29 2 354 350 345 327 305 255 235 213 173 160 165 165 168 170 177 173 166 168 190 203 213 211 219 228 232 228 217 216 226 222 241 244 246 242 254 259 260 266
201 103 20 35 12 358 351 349 347 336 310 285 265 217 185 179 168 165 159 162 174 179 182 180 197 212 201 201 218 228 233 236 235 228 229 231 233 252 268 282 310 293 293 284
287 355 303 329 348 350 343 341 340 337 334 318 295 238 185 169 163 172 171 160 168 187 192 183 194 216 211 207 213 224 234 242 243 239 233 236 236 222 195 265 211 254 275 293
299 301 300 302 314 331 330 338 341 341 335 333 331 279 185 165 168 175 177 169 174 200 205 196 208 224 227 221 220 231 248 257 260 252 240 241 252 258 238 202 204 222 234 245
321 326 304 315 324 328 332 338 339 344 347 346 355 268 189 176 178 185 191 191 191 198 204 200 215 222 229 228 233 248 256 238 258 255 256 254 258 263 264 263 228 210 203 214
320 309 297 307 316 329 332 333 328 339 360 14 96 208 209 202 200 204 197 202 201 202 201 207 216 227 228 237 251 259 266 271 271 274 264 260 262 263 266 271 277 272 248 189
298 296 296 303 313 316 316 314 304 304 303 328 280 257 260 233 212 203 192 200 213 211 216 230 235 235 233 248 260 251 247 248 270 273 270 266 261 264 270 273 279 287 288 295
300 305 304 299 295 298 301 301 293 277 265 256 248 246 251 219 210 211 219 220 233 236 238 240 247 248 243 248 262 266 261 220 225 248 252 262 270 274 280 282 278 275 279 317
291 293 292 290 292 295 298 300 300 290 268 266 254 230 234 241 248 248 248 238 240 243 247 251 256 256 245 250 264 275 271 264 259 266 267 267 277 277 277 279 282 285 283 214
293 292 292 289 290 291 295 301 299 293 287 267 251 242 243 250 258 258 247 239 242 248 260 272 263 250 247 253 270 260 268 273 266 262 262 253 255 266 271 275 280 285 289 289
307 305 300 298 301 300 301 303 302 300 297 282 266 253 248 250 256 256 254 255 270 294 282 270 251 250 252 243 266 268 266 265 267 267 268 267 268 269 269 276 282 285 282 282
317 319 318 316 307 300 303 305 300 298 296 285 270 262 258 250 243 246 253 258 268 295 284 237 243 253 257 280 255 264 263 264 269 270 271 275 277 277 280 283 287 288 285 285
334 324 319 318 312 308 305 298 295 293 293 286 283 278 271 262 255 254 264 285 295 313 273 261 262 321 319 281 257 263 265 268 272 277 280 285 288 287 286 286 284 286 287 287
339 335 336 334 322 313 311 303 293 288 288 285 285 284 277 276 275 271 269 276 291 287 277 296 352 347 289 264 264 266 270 274 276 278 280 282 284 289 292 292 290 290 290 292
347 351 346 338 333 330 329 327 322 312 299 286 275 273 275 271 263 270 282 298 313 283 284 2 246 265 263 260 266 269 270 270 274 276 278 283 287 287 288 290 290 292 293 292
337 335 333 332 328 326 325 321 318 315 302 293 287 282 279 278 278 286 298 296 288 264 267 217 213 244 255 269 275 281 286 300 306 300 293 292 290 288 287 289 293 297 300 304
322 315 323 315 317 314 309 302 300 303 305 304 301 299 296 299 294 286 277 270 271 267 276 276 258 249 271 282 286 293 296 286 269 274 290 293 295 300 303 303 300 298 300 308
312 315 312 318 327 320 311 304 297 297 298 295 299 303 300 297 294 294 287 279 273 263 269 278 280 274 277 289 303 297 284 286 293 293 293 292 298 303 303 301 300 304 312 323